Date String (YYYY-MM-DD hh:mm:ss) UTC,Instrument flags,Ambient pressure (hPa),Sample flow (lpm),Bypass flow (lpm),Sample temperature (°C),Ambient temperature (°C),ASC tube jacket temperature (°C),LED temperature (°C),Box temperature (°C),Sample RH (%),Span deviation,Mass concentration (μg/m³),Mass concentration (μg/m³),Mass concentration (μg/m³)
DateTimeUTC,F1_M11,P_M11,Q1_M11,Q2_M11,T1_M11,T2_M11,T3_M11,T4_M11,T5_M11,U1_M11,ZSPAN_M11,X0_M11,X2_M11,X1_M11
2023-04-11 18:00:00,,0831.5,5.00,0.00,28.5,27.3,00.0,36.7,30.2,10.7,0000.0,0016.74,0006.06,0004.48
2023-04-11 18:01:00,,0831.5,5.00,0.00,28.5,27.3,00.0,36.7,30.2,10.7,0000.0,0017.54,0006.35,0004.77
2023-04-11 18:02:00,,0831.4,4.99,0.00,28.5,27.4,00.0,36.7,30.2,10.5,0001.9,0017.60,0006.54,0005.01
2023-04-11 18:03:00,,0831.4,5.00,0.00,28.5,27.4,00.0,36.7,30.2,09.5,0002.6,0017.01,0006.62,0005.17
2023-04-11 18:04:00,,0831.4,5.01,0.00,28.6,27.4,00.0,36.7,30.2,09.0,0003.0,0017.16,0006.63,0005.21
2023-04-11 18:05:00,,0831.4,5.00,0.00,28.6,27.4,00.0,36.8,30.3,09.8,0002.9,0017.84,0006.69,0005.31
2023-04-11 18:06:00,,0831.4,4.99,0.00,28.6,27.4,00.0,36.8,30.3,09.9,0003.0,0017.99,0006.77,0005.44
2023-04-11 18:07:00,,0831.4,4.99,0.00,28.6,27.5,00.0,36.8,30.3,09.2,0003.5,0017.90,0006.83,0005.52
2023-04-11 18:08:00,,0831.4,4.99,0.00,28.6,27.5,00.0,36.8,30.3,09.8,0003.6,0017.54,0006.96,0005.62
2023-04-11 18:09:00,,0831.3,5.00,0.00,28.7,27.5,00.0,36.8,30.3,09.9,0003.0,0017.39,0007.09,0005.73
2023-04-11 18:10:00,,0831.3,5.00,0.00,28.7,27.5,00.0,36.8,30.4,09.9,0002.6,0017.65,0007.12,0005.82
2023-04-11 18:11:00,,0831.3,5.01,0.00,28.7,27.5,00.0,36.9,30.4,09.1,0002.4,0017.43,0006.99,0005.76
2023-04-11 18:12:00,,0831.3,5.00,0.00,28.7,27.6,00.0,36.9,30.4,09.1,0002.7,0017.33,0006.76,0005.60
2023-04-11 18:13:00,,0831.3,5.00,0.00,28.7,27.6,00.0,36.9,30.4,08.8,0003.1,0017.42,0006.57,0005.41
2023-04-11 18:14:00,,0831.3,4.99,0.00,28.7,27.6,00.0,36.9,30.4,08.8,0000.2,0017.28,0006.47,0005.27
2023-04-11 18:15:00,,0831.2,5.00,0.00,28.8,27.6,00.0,36.9,30.5,08.4,0000.0,0017.89,0006.46,0005.23
2023-04-11 18:16:00,,0831.2,5.01,0.00,28.8,27.6,00.0,37.0,30.5,08.8,0003.7,0017.13,0006.50,0005.25
2023-04-11 18:17:00,,0831.2,5.01,0.00,28.8,27.6,00.0,37.0,30.5,08.9,0003.7,0016.41,0006.44,0005.20
2023-04-11 18:18:00,,0831.2,5.00,0.00,28.8,27.7,00.0,37.0,30.5,09.5,0003.4,0016.31,0006.46,0005.26
2023-04-11 18:19:00,,0831.2,5.00,0.00,28.9,27.7,00.0,37.0,30.5,09.7,0004.4,0016.58,0006.70,0005.52
2023-04-11 18:20:00,,0831.2,4.99,0.00,28.9,27.7,00.0,37.0,30.5,09.9,0004.7,0017.09,0006.97,0005.81
2023-04-11 18:21:00,,0831.2,5.00,0.00,28.9,27.7,00.0,37.0,30.6,09.4,0004.8,0017.69,0007.19,0006.03
2023-04-11 18:22:00,,0831.2,5.02,0.00,28.9,27.7,00.0,37.1,30.6,09.9,0005.0,0018.23,0007.47,0006.30
2023-04-11 18:23:00,,0831.1,4.99,0.00,28.9,27.7,00.0,37.1,30.6,09.5,0004.9,0018.24,0007.69,0006.50
2023-04-11 18:24:00,,0831.1,4.99,0.00,28.9,27.8,00.0,37.1,30.6,09.0,0004.9,0017.47,0007.85,0006.65
2023-04-11 18:25:00,,0831.1,5.00,0.00,28.9,27.8,00.0,37.1,30.6,09.2,0004.8,0017.17,0008.08,0006.91
2023-04-11 18:26:00,,0831.1,5.00,0.00,29.0,27.8,00.0,37.1,30.6,09.3,0004.8,0016.03,0008.41,0007.21
2023-04-11 18:27:00,,0831.1,5.01,0.00,29.0,27.8,00.0,37.2,30.6,08.9,0004.8,0017.31,0008.58,0007.37
2023-04-11 18:28:00,,0831.2,5.00,0.00,29.0,27.8,00.0,37.2,30.6,09.0,0004.7,0017.36,0008.73,0007.55
2023-04-11 18:29:00,,0831.1,5.00,0.00,29.0,27.8,00.0,37.2,30.7,09.3,0004.3,0017.80,0008.94,0007.70
2023-04-11 18:30:00,,0831.0,5.00,0.00,29.0,27.9,00.0,37.2,30.7,09.2,0004.1,0017.84,0008.92,0007.68
2023-04-11 18:31:00,,0831.0,5.00,0.00,29.0,27.9,00.0,37.2,30.7,08.9,0004.0,0017.81,0008.70,0007.48
2023-04-11 18:32:00,,0831.0,5.00,0.00,29.1,27.9,00.0,37.3,30.7,08.8,0004.0,0016.88,0008.48,0007.28
2023-04-11 18:33:00,,0831.0,5.00,0.00,29.1,27.9,00.0,37.3,30.7,08.8,0003.9,0016.94,0008.29,0007.10
2023-04-11 18:34:00,,0831.0,5.00,0.00,29.1,27.9,00.0,37.3,30.7,08.4,0004.0,0016.89,0008.12,0006.94
2023-04-11 18:35:00,,0830.9,5.01,0.00,29.1,27.9,00.0,37.3,30.8,08.1,0004.1,0017.19,0007.98,0006.81
2023-04-11 18:36:00,,0830.9,4.99,0.00,29.1,28.0,00.0,37.3,30.8,08.1,0004.2,0016.98,0007.82,0006.64
2023-04-11 18:37:00,,0831.0,5.00,0.00,29.2,28.0,00.0,37.4,30.8,08.3,0004.3,0016.48,0007.60,0006.46
2023-04-11 18:38:00,,0830.9,5.01,0.00,29.2,28.0,00.0,37.4,30.8,08.1,0004.2,0014.74,0007.43,0006.31
2023-04-11 18:39:00,,0830.9,5.00,0.00,29.2,28.0,00.0,37.4,30.8,08.2,0004.3,0014.50,0007.26,0006.14
2023-04-11 18:40:00,,0830.9,5.01,0.00,29.2,28.0,00.0,37.4,30.8,08.1,0004.8,0014.12,0007.03,0005.94
2023-04-11 18:41:00,,0831.0,5.00,0.00,29.2,28.0,00.0,37.4,30.8,08.1,0005.0,0013.74,0006.80,0005.72
2023-04-11 18:42:00,,0830.9,5.00,0.00,29.3,28.1,00.0,37.5,30.9,08.5,0005.1,0012.93,0006.52,0005.50
2023-04-11 18:43:00,,0830.9,5.01,0.00,29.3,28.1,00.0,37.5,30.9,08.7,0005.4,0013.55,0006.33,0005.31
2023-04-11 18:44:00,,0830.8,5.00,0.00,29.3,28.1,00.0,37.5,30.9,09.1,0005.5,0013.37,0006.15,0005.10
2023-04-11 18:45:00,,0830.8,5.01,0.00,29.3,28.1,00.0,37.5,30.9,09.2,0005.5,0012.72,0005.95,0004.91
2023-04-11 18:46:00,,0830.9,4.99,0.00,29.3,28.1,00.0,37.5,31.0,09.1,0005.2,0012.50,0005.84,0004.78
2023-04-11 18:47:00,,0830.8,4.99,0.00,29.3,28.2,00.0,37.5,31.0,08.9,0001.0,0013.21,0005.71,0004.65
2023-04-11 18:48:00,,0830.9,5.01,0.00,29.4,28.2,00.0,37.6,31.0,08.6,0000.0,0013.16,0005.59,0004.52
2023-04-11 18:49:00,,0830.8,5.01,0.00,29.4,28.2,00.0,37.6,31.0,08.9,0000.0,0013.07,0005.44,0004.38
2023-04-11 18:50:00,,0830.7,5.00,0.00,29.4,28.2,00.0,37.6,31.0,09.0,0000.0,0013.27,0005.32,0004.26
2023-04-11 18:51:00,,0830.7,5.00,0.00,29.4,28.2,00.0,37.6,31.0,09.3,0000.0,0014.18,0005.20,0004.13
2023-04-11 18:52:00,,0830.6,4.99,0.00,29.4,28.3,00.0,37.6,31.0,09.2,0000.0,0014.29,0005.08,0004.01
2023-04-11 18:53:00,,0830.6,4.98,0.00,29.4,28.3,00.0,37.6,31.1,08.9,0000.0,0014.85,0004.96,0003.87
2023-04-11 18:54:00,,0830.5,5.00,0.00,29.5,28.3,00.0,37.7,31.1,09.0,0000.0,0014.80,0004.87,0003.76
2023-04-11 18:55:00,,0830.7,5.01,0.00,29.5,28.3,00.0,37.7,31.1,08.7,0000.0,0014.86,0004.78,0003.68
2023-04-11 18:56:00,,0830.6,5.00,0.00,29.5,28.3,00.0,37.7,31.1,08.6,0000.0,0015.30,0004.73,0003.62
2023-04-11 18:57:00,,0830.6,4.99,0.00,29.5,28.3,00.0,37.7,31.1,08.8,0000.0,0014.99,0004.66,0003.57
2023-04-11 18:58:00,,0830.6,4.99,0.00,29.5,28.4,00.0,37.7,31.1,09.0,0000.0,0014.70,0004.60,0003.54
2023-04-11 18:59:00,,0830.5,5.00,0.00,29.6,28.4,00.0,37.8,31.1,08.5,0000.0,0014.48,0004.53,0003.51
